• In Belarus
  • List of Countries
  • For 7 days
  • Water Temperature
  • Satellite Maps
  • Weather Map
  • Weather Widgets
  • user-avatar
    Login

    Hourly Weather Kakurinka

    Today, 21 September, Friday

    Time Temperature Precipitation Wind Pressure Humidity
    00:00 +17°C° 0 mm 2 mps 749 mmHg 89%
    01:00 +16°C° 0 mm 1 mps 749 mmHg 90%
    02:00 +16°C° 0 mm 1 mps 749 mmHg 91%
    03:00 +15°C° 0 mm 1 mps 749 mmHg 91%
    04:00 +15°C° 0 mm 1 mps 749 mmHg 91%
    05:00 +15°C° 0 mm 1 mps 750 mmHg 92%
    06:00 +16°C° 0 mm 1 mps 750 mmHg 87%
    07:00 +19°C° 0 mm 1 mps 750 mmHg 82%
    08:00 +20°C° 0 mm 1 mps 750 mmHg 76%
    09:00 +21°C° 0 mm 1 mps 750 mmHg 69%
    10:00 +23°C° 0 mm 2 mps 750 mmHg 62%
    11:00 +24°C° 0 mm 2 mps 750 mmHg 56%
    12:00 +25°C° 0 mm 2 mps 750 mmHg 53%
    13:00 +26°C° 0 mm 2 mps 750 mmHg 50%
    14:00 +26°C° 0 mm 2 mps 750 mmHg 48%
    15:00 +25°C° 0 mm 1 mps 750 mmHg 53%
    16:00 +24°C° 0 mm 1 mps 750 mmHg 58%
    17:00 +21°C° 0 mm 0 mps 750 mmHg 62%
    18:00 +22°C° 0 mm 1 mps 750 mmHg 65%
    19:00 +21°C° 0 mm 1 mps 750 mmHg 67%
    20:00 +20°C° 0 mm 1 mps 750 mmHg 70%
    21:00 +19°C° 0 mm 2 mps 750 mmHg 72%
    22:00 +18°C° 0 mm 2 mps 750 mmHg 73%
    23:00 +18°C° 0 mm 2 mps 750 mmHg 75%

    Tomorrow, 22 September, Saturday

    Time Temperature Precipitation Wind Pressure Humidity
    00:00 +18°C° 0 mm 2 mps 750 mmHg 77%
    01:00 +17°C° 0 mm 2 mps 750 mmHg 78%
    02:00 +17°C° 0 mm 2 mps 750 mmHg 79%
    03:00 +17°C° 0 mm 2 mps 750 mmHg 79%
    04:00 +17°C° 0 mm 2 mps 749 mmHg 80%
    05:00 +16°C° 0 mm 2 mps 749 mmHg 80%
    06:00 +18°C° 0 mm 3 mps 749 mmHg 75%
    07:00 +19°C° 0 mm 3 mps 749 mmHg 71%
    08:00 +20°C° 0 mm 4 mps 749 mmHg 66%
    09:00 +22°C° 0 mm 4 mps 749 mmHg 61%
    10:00 +23°C° 0 mm 5 mps 749 mmHg 57%
    11:00 +26°C° 0 mm 5 mps 748 mmHg 52%
    12:00 +26°C° 0 mm 5 mps 748 mmHg 50%
    13:00 +27°C° 0 mm 5 mps 748 mmHg 49%
    14:00 +27°C° 0 mm 6 mps 747 mmHg 48%
    15:00 +26°C° 0 mm 5 mps 747 mmHg 52%
    16:00 +25°C° 0 mm 4 mps 746 mmHg 56%
    17:00 +23°C° 0 mm 4 mps 746 mmHg 60%
    18:00 +23°C° 0 mm 4 mps 745 mmHg 58%
    19:00 +22°C° 0 mm 5 mps 745 mmHg 57%
    20:00 +22°C° 0 mm 5 mps 745 mmHg 55%
    21:00 +22°C° 0 mm 5 mps 744 mmHg 54%
    22:00 +21°C° 0 mm 5 mps 744 mmHg 53%
    23:00 +21°C° 0 mm 6 mps 744 mmHg 52%

    Day after tomorrow, 23 September, Sunday

    Time Temperature Precipitation Wind Pressure Humidity
    00:00 +20°C° 0 mm 5 mps 743 mmHg 54%
    01:00 +20°C° 0 mm 5 mps 743 mmHg 55%
    02:00 +19°C° 0 mm 5 mps 743 mmHg 56%
    03:00 +17°C° 0.2 mm 5 mps 743 mmHg 63%
    04:00 +15°C° 0.2 mm 5 mps 743 mmHg 70%
    05:00 +14°C° 0.2 mm 5 mps 742 mmHg 76%
    06:00 +13°C° 0.5 mm 5 mps 743 mmHg 79%
    07:00 +10°C° 0.5 mm 6 mps 743 mmHg 82%
    08:00 +9°C° 0.5 mm 6 mps 743 mmHg 85%
    09:00 +9°C° 0.4 mm 5 mps 743 mmHg 84%
    10:00 +9°C° 0.4 mm 5 mps 744 mmHg 83%
    11:00 +10°C° 0.4 mm 4 mps 744 mmHg 81%
    12:00 +10°C° 0.2 mm 4 mps 744 mmHg 82%
    13:00 +11°C° 0.2 mm 4 mps 744 mmHg 82%
    14:00 +11°C° 0.2 mm 4 mps 744 mmHg 82%
    15:00 +11°C° 0.1 mm 4 mps 744 mmHg 82%
    16:00 +11°C° 0.1 mm 4 mps 744 mmHg 82%
    17:00 +11°C° 0.1 mm 4 mps 744 mmHg 81%
    18:00 +11°C° 0 mm 4 mps 744 mmHg 81%
    19:00 +10°C° 0 mm 3 mps 744 mmHg 81%
    20:00 +10°C° 0 mm 3 mps 744 mmHg 82%
    21:00 +10°C° 0 mm 3 mps 744 mmHg 85%
    22:00 +9°C° 0 mm 3 mps 744 mmHg 88%
    23:00 +7°C° 0 mm 4 mps 744 mmHg 91%

    24 September, Monday

    Time Temperature Precipitation Wind Pressure Humidity
    00:00 +8°C° 0 mm 3 mps 744 mmHg 92%
    01:00 +8°C° 0 mm 3 mps 744 mmHg 92%
    02:00 +7°C° 0 mm 3 mps 744 mmHg 92%
    03:00 +7°C° 0 mm 3 mps 744 mmHg 92%
    04:00 +7°C° 0 mm 3 mps 744 mmHg 92%
    05:00 +5°C° 0 mm 3 mps 744 mmHg 92%
    06:00 +7°C° 0 mm 3 mps 744 mmHg 88%
    07:00 +8°C° 0 mm 3 mps 744 mmHg 84%
    08:00 +10°C° 0 mm 3 mps 744 mmHg 80%
    09:00 +11°C° 0 mm 4 mps 743 mmHg 73%
    10:00 +12°C° 0 mm 4 mps 743 mmHg 67%
    11:00 +14°C° 0 mm 4 mps 743 mmHg 60%
    12:00 +14°C° 0 mm 5 mps 742 mmHg 60%
    13:00 +14°C° 0 mm 5 mps 741 mmHg 60%
    14:00 +14°C° 0 mm 5 mps 741 mmHg 59%
    15:00 +13°C° 0.8 mm 6 mps 740 mmHg 67%
    16:00 +10°C° 0.8 mm 7 mps 739 mmHg 75%
    17:00 +9°C° 0.8 mm 8 mps 737 mmHg 83%
    18:00 +8°C° 2.3 mm 9 mps 736 mmHg 84%
    19:00 +8°C° 2.3 mm 10 mps 734 mmHg 86%
    20:00 +8°C° 2.3 mm 11 mps 732 mmHg 88%
    21:00 +8°C° 0.9 mm 10 mps 731 mmHg 86%
    22:00 +9°C° 0.9 mm 10 mps 729 mmHg 85%
    23:00 +10°C° 0.9 mm 9 mps 728 mmHg 83%

    25 September, Tuesday

    Time Temperature Precipitation Wind Pressure Humidity
    00:00 +8°C° 0.3 mm 9 mps 728 mmHg 85%
    01:00 +8°C° 0.3 mm 9 mps 727 mmHg 86%
    02:00 +7°C° 0.3 mm 9 mps 727 mmHg 87%
    03:00 +7°C° 0.3 mm 8 mps 727 mmHg 88%
    04:00 +7°C° 0.3 mm 8 mps 727 mmHg 88%
    05:00 +7°C° 0.3 mm 8 mps 728 mmHg 89%
    06:00 +7°C° 0.4 mm 8 mps 728 mmHg 89%
    07:00 +7°C° 0.4 mm 8 mps 729 mmHg 88%
    08:00 +6°C° 0.4 mm 8 mps 729 mmHg 87%
    09:00 +6°C° 0.6 mm 9 mps 730 mmHg 87%
    10:00 +6°C° 0.6 mm 9 mps 731 mmHg 86%
    11:00 +6°C° 0.6 mm 10 mps 732 mmHg 85%
    12:00 +6°C° 0.9 mm 10 mps 733 mmHg 84%
    13:00 +6°C° 0.9 mm 10 mps 734 mmHg 84%
    14:00 +5°C° 0.9 mm 10 mps 735 mmHg 83%
    15:00 +5°C° 0.8 mm 10 mps 736 mmHg 83%
    16:00 +5°C° 0.8 mm 10 mps 737 mmHg 83%
    17:00 +5°C° 0.8 mm 9 mps 738 mmHg 83%
    18:00 +5°C° 0.4 mm 9 mps 739 mmHg 82%
    19:00 +5°C° 0.4 mm 9 mps 740 mmHg 82%
    20:00 +5°C° 0.4 mm 8 mps 741 mmHg 82%
    21:00 +5°C° 0.1 mm 8 mps 741 mmHg 82%
    22:00 +4°C° 0.1 mm 8 mps 742 mmHg 81%
    23:00 +4°C° 0.1 mm 7 mps 742 mmHg 81%

    26 September, Wednesday

    Time Temperature Precipitation Wind Pressure Humidity
    00:00 +4°C° 0 mm 7 mps 743 mmHg 82%
    01:00 +3°C° 0 mm 7 mps 743 mmHg 83%
    02:00 +3°C° 0 mm 7 mps 743 mmHg 84%
    03:00 +2°C° 0 mm 6 mps 744 mmHg 84%
    04:00 +2°C° 0 mm 6 mps 744 mmHg 84%
    05:00 +1°C° 0 mm 6 mps 745 mmHg 84%
    06:00 +2°C° 0 mm 6 mps 745 mmHg 80%
    07:00 +2°C° 0 mm 6 mps 745 mmHg 76%
    08:00 +3°C° 0 mm 6 mps 746 mmHg 72%
    09:00 +4°C° 0 mm 6 mps 746 mmHg 65%
    10:00 +5°C° 0 mm 6 mps 745 mmHg 59%
    11:00 +7°C° 0 mm 5 mps 745 mmHg 53%
    12:00 +7°C° 0.4 mm 5 mps 745 mmHg 60%
    13:00 +6°C° 0.4 mm 5 mps 745 mmHg 67%
    14:00 +6°C° 0.4 mm 5 mps 744 mmHg 74%
    15:00 +6°C° 0.7 mm 4 mps 744 mmHg 78%
    16:00 +5°C° 0.7 mm 4 mps 744 mmHg 83%
    17:00 +5°C° 0.7 mm 3 mps 743 mmHg 87%
    18:00 +5°C° 0.2 mm 3 mps 744 mmHg 89%
    19:00 +4°C° 0.2 mm 3 mps 744 mmHg 90%
    20:00 +4°C° 0.2 mm 3 mps 745 mmHg 92%
    21:00 +3°C° 0 mm 3 mps 745 mmHg 93%
    22:00 +3°C° 0 mm 3 mps 746 mmHg 94%
    23:00 +2°C° 0 mm 3 mps 746 mmHg 95%
    Show more